CSC8633 ZSNJ-ZGGG

Flight info

Callsign CSC8633
Flight time 1h 39m
Altitude 30100
Route K0848S1040 HFE52X HFE H2 P262 DCT KHN DCT RUNEK W19 OLPAB OLPAB3P
Aircraft A319/M-SDE3FGHIRWY/LB1

Departure

Time 2026-04-30 12:06
Airport Nanjing Lukou International Airport (ZSNJ)

Arrival

Time 2026-04-30 13:45
Airport Guangzhou Baiyun International Airport (ZGGG)
Time Latitude Longitude Altitude Speed Heading
2026-04-30 11:42 31.72827 118.86652 56 ft 0 kts 328°
2026-04-30 11:48 31.73577 118.86103 56 ft 0 kts 51°
2026-04-30 11:53 31.73575 118.86101 56 ft 2 kts 52°
2026-04-30 11:54 31.73566 118.86087 56 ft 2 kts 51°
2026-04-30 11:54 31.73557 118.86073 56 ft 2 kts 51°
2026-04-30 11:54 31.73547 118.86060 56 ft 2 kts 51°
2026-04-30 11:54 31.73538 118.86046 56 ft 1 kts 59°
2026-04-30 11:55 31.73537 118.86031 56 ft 2 kts 121°
2026-04-30 11:55 31.73542 118.86024 56 ft 1 kts 151°
2026-04-30 11:55 31.73548 118.86021 56 ft 0 kts 148°
2026-04-30 11:56 31.73547 118.86021 56 ft 0 kts 148°
2026-04-30 11:56 31.73546 118.86022 56 ft 1 kts 148°
2026-04-30 11:57 31.73533 118.86031 56 ft 3 kts 149°
2026-04-30 11:57 31.73508 118.86049 56 ft 5 kts 149°
2026-04-30 11:57 31.73470 118.86076 56 ft 7 kts 149°
2026-04-30 11:57 31.73421 118.86112 56 ft 9 kts 147°
2026-04-30 11:58 31.73360 118.86158 56 ft 11 kts 148°
2026-04-30 11:58 31.73290 118.86211 56 ft 12 kts 146°
2026-04-30 11:58 31.73210 118.86269 56 ft 14 kts 147°
2026-04-30 11:58 31.73131 118.86324 56 ft 9 kts 148°
2026-04-30 11:59 31.73076 118.86365 57 ft 0 kts 149°
2026-04-30 11:59 31.73071 118.86369 56 ft 1 kts 148°
2026-04-30 11:59 31.73053 118.86383 56 ft 4 kts 149°
2026-04-30 11:59 31.73023 118.86404 56 ft 6 kts 148°
2026-04-30 12:00 31.72979 118.86436 56 ft 8 kts 148°
2026-04-30 12:00 31.72925 118.86475 56 ft 10 kts 148°
2026-04-30 12:00 31.72858 118.86524 56 ft 12 kts 148°
2026-04-30 12:00 31.72783 118.86579 56 ft 13 kts 147°
2026-04-30 12:01 31.72700 118.86641 56 ft 14 kts 148°
2026-04-30 12:01 31.72610 118.86710 56 ft 15 kts 132°
2026-04-30 12:01 31.72631 118.86827 56 ft 16 kts 57°
2026-04-30 12:01 31.72693 118.86945 56 ft 17 kts 59°
2026-04-30 12:02 31.72760 118.87068 56 ft 18 kts 57°
2026-04-30 12:02 31.72829 118.87199 56 ft 19 kts 57°
2026-04-30 12:02 31.72901 118.87333 56 ft 19 kts 57°
2026-04-30 12:02 31.72977 118.87474 56 ft 20 kts 58°
2026-04-30 12:03 31.73054 118.87619 56 ft 21 kts 59°
2026-04-30 12:03 31.73181 118.87922 56 ft 18 kts 105°
2026-04-30 12:03 31.73159 118.87952 56 ft 1 kts 144°
2026-04-30 12:04 31.73157 118.87954 56 ft 0 kts 147°
2026-04-30 12:04 31.73153 118.87958 56 ft 1 kts 147°
2026-04-30 12:04 31.73135 118.87971 56 ft 3 kts 148°
2026-04-30 12:05 31.73105 118.87992 56 ft 6 kts 148°
2026-04-30 12:05 31.73061 118.87998 56 ft 7 kts 211°
2026-04-30 12:05 31.73029 118.87950 56 ft 1 kts 238°
2026-04-30 12:05 31.73029 118.87949 56 ft 2 kts 238°
2026-04-30 12:06 31.72908 118.87719 57 ft 75 kts 238°
2026-04-30 12:06 31.72479 118.86924 75 ft 148 kts 238°
2026-04-30 12:06 31.71945 118.85980 1020 ft 134 kts 234°
2026-04-30 12:06 31.71424 118.85066 1756 ft 143 kts 238°
2026-04-30 12:07 31.70891 118.84064 2400 ft 151 kts 238°
2026-04-30 12:07 31.70308 118.82967 2878 ft 169 kts 239°
2026-04-30 12:07 31.69654 118.81742 3406 ft 186 kts 239°
2026-04-30 12:07 31.68932 118.80402 3950 ft 203 kts 240°
2026-04-30 12:08 31.68156 118.78951 4514 ft 220 kts 243°
2026-04-30 12:08 31.67584 118.77219 5006 ft 239 kts 262°
2026-04-30 12:08 31.67453 118.75231 5627 ft 255 kts 272°
2026-04-30 12:08 31.67446 118.73108 6416 ft 266 kts 273°
2026-04-30 12:09 31.67446 118.70937 7428 ft 269 kts 274°
2026-04-30 12:09 31.67436 118.68779 8464 ft 269 kts 274°
2026-04-30 12:09 31.67418 118.66599 9413 ft 271 kts 274°
2026-04-30 12:09 31.67397 118.64404 10363 ft 272 kts 274°
2026-04-30 12:10 31.67375 118.62170 11008 ft 283 kts 275°
2026-04-30 12:10 31.67345 118.59804 11530 ft 297 kts 275°
2026-04-30 12:10 31.67311 118.57308 11910 ft 315 kts 274°
2026-04-30 12:10 31.67273 118.54688 12244 ft 333 kts 274°
2026-04-30 12:11 31.67230 118.51897 12627 ft 348 kts 274°
2026-04-30 12:11 31.67179 118.49030 13313 ft 353 kts 275°
2026-04-30 12:11 31.67132 118.46146 14059 ft 356 kts 275°
2026-04-30 12:11 31.67087 118.43263 14777 ft 358 kts 275°
2026-04-30 12:12 31.67045 118.40366 15495 ft 360 kts 275°
2026-04-30 12:12 31.66998 118.37394 16139 ft 364 kts 274°
2026-04-30 12:12 31.66950 118.34454 16776 ft 366 kts 274°
2026-04-30 12:12 31.66900 118.31443 17448 ft 368 kts 274°
2026-04-30 12:13 31.66851 118.28469 18104 ft 370 kts 274°
2026-04-30 12:13 31.66798 118.25437 18717 ft 373 kts 274°
2026-04-30 12:13 31.66746 118.22377 19314 ft 375 kts 274°
2026-04-30 12:13 31.66688 118.19343 19944 ft 377 kts 273°
2026-04-30 12:14 31.66524 118.16254 20569 ft 380 kts 270°
2026-04-30 12:14 31.66247 118.13171 21104 ft 383 kts 269°
2026-04-30 12:14 31.65949 118.10031 21681 ft 384 kts 269°
2026-04-30 12:14 31.65650 118.06919 22233 ft 385 kts 270°
2026-04-30 12:15 31.65350 118.03801 22735 ft 388 kts 269°
2026-04-30 12:15 31.65053 118.00678 23228 ft 389 kts 270°
2026-04-30 12:15 31.64749 117.97511 23750 ft 390 kts 270°
2026-04-30 12:15 31.64446 117.94388 24292 ft 390 kts 270°
2026-04-30 12:16 31.64136 117.91202 24729 ft 392 kts 270°
2026-04-30 12:16 31.63828 117.88017 25162 ft 395 kts 270°
2026-04-30 12:16 31.63517 117.84857 25602 ft 396 kts 270°
2026-04-30 12:16 31.63208 117.81653 26080 ft 397 kts 270°
2026-04-30 12:17 31.62576 117.75204 26953 ft 399 kts 271°
2026-04-30 12:17 31.62262 117.72006 27304 ft 401 kts 271°
2026-04-30 12:17 31.61940 117.68746 27716 ft 402 kts 271°
2026-04-30 12:18 31.61620 117.65497 28073 ft 404 kts 271°
2026-04-30 12:18 31.61429 117.62216 28383 ft 398 kts 278°
2026-04-30 12:18 31.61724 117.59064 28756 ft 391 kts 287°
2026-04-30 12:18 31.62484 117.56022 29081 ft 387 kts 295°
2026-04-30 12:19 31.63668 117.53197 29376 ft 385 kts 303°
2026-04-30 12:19 31.65167 117.50588 29663 ft 386 kts 306°
2026-04-30 12:19 31.66702 117.48003 29940 ft 387 kts 306°
2026-04-30 12:19 31.68250 117.45419 30150 ft 387 kts 306°
2026-04-30 12:20 31.71220 117.40177 30151 ft 390 kts 298°
2026-04-30 12:20 31.72085 117.37135 30163 ft 397 kts 287°
2026-04-30 12:20 31.72341 117.33921 30169 ft 406 kts 276°
2026-04-30 12:21 31.71938 117.30572 30159 ft 421 kts 264°
2026-04-30 12:21 31.70844 117.27359 30164 ft 438 kts 251°
2026-04-30 12:21 31.68988 117.24390 30159 ft 462 kts 237°
2026-04-30 12:21 31.66441 117.22000 30154 ft 488 kts 222°
2026-04-30 12:22 31.63217 117.20426 30154 ft 517 kts 204°
2026-04-30 12:22 31.59553 117.20001 30158 ft 542 kts 185°
2026-04-30 12:22 31.55789 117.20882 30156 ft 562 kts 166°
2026-04-30 12:22 31.52292 117.22974 30182 ft 573 kts 152°
2026-04-30 12:23 31.45288 117.27257 30148 ft 559 kts 170°
2026-04-30 12:23 31.41534 117.28005 30181 ft 544 kts 183°
2026-04-30 12:23 31.37764 117.28183 30169 ft 535 kts 189°
2026-04-30 12:24 31.30356 117.27843 30173 ft 531 kts 193°
2026-04-30 12:24 31.22977 117.27401 30165 ft 531 kts 192°
2026-04-30 12:25 31.15605 117.26978 30177 ft 529 kts 192°
2026-04-30 12:25 31.08252 117.26562 30169 ft 529 kts 192°
2026-04-30 12:26 31.00911 117.26151 30173 ft 529 kts 193°
2026-04-30 12:26 30.93532 117.25740 30166 ft 529 kts 192°
2026-04-30 12:27 30.86205 117.25337 30166 ft 529 kts 192°
2026-04-30 12:27 30.78876 117.24941 30169 ft 528 kts 192°
2026-04-30 12:28 30.71527 117.24553 30175 ft 526 kts 192°
2026-04-30 12:28 30.64141 117.24174 30177 ft 528 kts 192°
2026-04-30 12:29 30.56853 117.23800 30174 ft 528 kts 192°
2026-04-30 12:29 30.49515 117.23428 30179 ft 525 kts 192°
2026-04-30 12:30 30.42190 117.23056 30182 ft 527 kts 192°
2026-04-30 12:30 30.34864 117.22683 30186 ft 525 kts 192°
2026-04-30 12:31 30.27573 117.22313 30180 ft 525 kts 192°
2026-04-30 12:31 30.20256 117.21948 30192 ft 524 kts 192°
2026-04-30 12:32 30.12973 117.21588 30200 ft 523 kts 192°
2026-04-30 12:32 30.05712 117.21229 30201 ft 522 kts 192°
2026-04-30 12:33 29.98422 117.20866 30211 ft 522 kts 192°
2026-04-30 12:33 29.91170 117.20487 30214 ft 521 kts 192°
2026-04-30 12:34 29.83931 117.20095 30195 ft 521 kts 192°
2026-04-30 12:34 29.80390 117.19685 30205 ft 507 kts 200°
2026-04-30 12:34 29.76992 117.18675 30194 ft 495 kts 210°
2026-04-30 12:35 29.73889 117.17121 30191 ft 479 kts 218°
2026-04-30 12:35 29.71106 117.15103 30188 ft 466 kts 227°
2026-04-30 12:35 29.66183 117.10387 30184 ft 460 kts 231°
2026-04-30 12:36 29.61330 117.05602 30184 ft 460 kts 231°
2026-04-30 12:36 29.56470 117.00848 30189 ft 461 kts 230°
2026-04-30 12:37 29.51585 116.96098 30183 ft 462 kts 230°
2026-04-30 12:37 29.46666 116.91331 30198 ft 461 kts 230°
2026-04-30 12:38 29.41776 116.86595 30190 ft 462 kts 230°
2026-04-30 12:38 29.36865 116.81850 30201 ft 463 kts 230°
2026-04-30 12:39 29.31943 116.77100 30192 ft 462 kts 230°
2026-04-30 12:39 29.27050 116.72383 30194 ft 463 kts 229°
2026-04-30 12:40 29.22119 116.67638 30200 ft 464 kts 229°
2026-04-30 12:40 29.17179 116.62889 30191 ft 464 kts 229°
2026-04-30 12:41 29.12217 116.58128 30197 ft 465 kts 229°
2026-04-30 12:41 29.07272 116.53390 30202 ft 464 kts 229°
2026-04-30 12:42 29.02335 116.48663 30193 ft 463 kts 229°
2026-04-30 12:42 28.97400 116.43945 30199 ft 464 kts 229°
2026-04-30 12:43 28.92463 116.39230 30197 ft 464 kts 229°
2026-04-30 12:43 28.87521 116.34526 30202 ft 464 kts 228°
2026-04-30 12:44 28.82571 116.29821 30197 ft 462 kts 228°
2026-04-30 12:44 28.77600 116.25086 30199 ft 464 kts 228°
2026-04-30 12:45 28.72642 116.20377 30199 ft 464 kts 228°
2026-04-30 12:45 28.67691 116.15675 30199 ft 464 kts 227°
2026-04-30 12:46 28.62728 116.10972 30202 ft 465 kts 227°
2026-04-30 12:46 28.57758 116.06266 30199 ft 466 kts 227°
2026-04-30 12:47 28.52761 116.01543 30200 ft 466 kts 227°
2026-04-30 12:47 28.47762 115.96865 30202 ft 467 kts 225°
2026-04-30 12:48 28.42316 115.92767 30201 ft 476 kts 217°
2026-04-30 12:48 28.36260 115.89578 30200 ft 487 kts 208°
2026-04-30 12:49 28.29864 115.86964 30201 ft 489 kts 207°
2026-04-30 12:49 28.23414 115.84370 30202 ft 488 kts 207°
2026-04-30 12:50 28.17015 115.81789 30203 ft 487 kts 207°
2026-04-30 12:50 28.10653 115.79218 30200 ft 486 kts 207°
2026-04-30 12:51 28.04285 115.76643 30203 ft 487 kts 206°
2026-04-30 12:51 27.97916 115.74072 30201 ft 487 kts 206°
2026-04-30 12:52 27.91506 115.71495 30204 ft 487 kts 206°
2026-04-30 12:52 27.85134 115.68951 30202 ft 487 kts 206°
2026-04-30 12:53 27.78760 115.66409 30206 ft 485 kts 206°
2026-04-30 12:53 27.72397 115.63853 30208 ft 484 kts 206°
2026-04-30 12:54 27.66051 115.61287 30206 ft 484 kts 206°
2026-04-30 12:54 27.59718 115.58729 30205 ft 484 kts 206°
2026-04-30 12:55 27.53387 115.56175 30204 ft 483 kts 206°
2026-04-30 12:55 27.47019 115.53611 30203 ft 483 kts 206°
2026-04-30 12:56 27.40662 115.51057 30203 ft 482 kts 206°
2026-04-30 12:56 27.34342 115.48518 30204 ft 481 kts 206°
2026-04-30 12:57 27.28025 115.45982 30202 ft 481 kts 206°
2026-04-30 12:57 27.21764 115.43470 30203 ft 480 kts 206°
2026-04-30 12:58 27.15448 115.40941 30203 ft 480 kts 205°
2026-04-30 12:58 27.09175 115.38434 30204 ft 480 kts 205°
2026-04-30 12:59 27.02867 115.35915 30204 ft 480 kts 205°
2026-04-30 12:59 26.96585 115.33398 30205 ft 479 kts 205°
2026-04-30 13:00 26.90269 115.30858 30203 ft 479 kts 205°
2026-04-30 13:00 26.83928 115.28342 30203 ft 479 kts 205°
2026-04-30 13:01 26.77660 115.25856 30205 ft 478 kts 205°
2026-04-30 13:01 26.71320 115.23319 30205 ft 479 kts 205°
2026-04-30 13:02 26.65040 115.20810 30207 ft 479 kts 205°
2026-04-30 13:02 26.58713 115.18288 30203 ft 480 kts 205°
2026-04-30 13:03 26.52429 115.15784 30207 ft 480 kts 205°
2026-04-30 13:03 26.46108 115.13271 30213 ft 479 kts 205°
2026-04-30 13:04 26.39852 115.10784 30206 ft 479 kts 205°
2026-04-30 13:04 26.33581 115.08295 30208 ft 479 kts 204°
2026-04-30 13:05 26.27259 115.05790 30198 ft 479 kts 205°
2026-04-30 13:06 26.17815 115.02053 30197 ft 480 kts 205°
2026-04-30 13:06 26.11514 114.99564 30199 ft 480 kts 204°
2026-04-30 13:07 26.05179 114.97063 30206 ft 480 kts 204°
2026-04-30 13:07 25.98856 114.94572 30203 ft 480 kts 204°
2026-04-30 13:08 25.92556 114.92092 30205 ft 479 kts 204°
2026-04-30 13:08 25.86244 114.89617 30210 ft 480 kts 204°
2026-04-30 13:09 25.79888 114.87339 30207 ft 483 kts 200°
2026-04-30 13:09 25.73306 114.85616 30207 ft 485 kts 197°
2026-04-30 13:10 25.66723 114.83984 30210 ft 486 kts 197°
2026-04-30 13:10 25.60105 114.82343 30207 ft 486 kts 197°
2026-04-30 13:11 25.53514 114.80710 30206 ft 485 kts 197°
2026-04-30 13:11 25.46927 114.79079 30206 ft 485 kts 197°
2026-04-30 13:12 25.40339 114.77448 30205 ft 485 kts 197°
2026-04-30 13:12 25.33739 114.75817 30204 ft 485 kts 197°
2026-04-30 13:13 25.23861 114.73380 30210 ft 486 kts 197°
2026-04-30 13:14 25.13951 114.70937 30206 ft 486 kts 197°
2026-04-30 13:14 25.03997 114.68489 30210 ft 486 kts 197°
2026-04-30 13:15 24.94111 114.66062 30214 ft 485 kts 197°
2026-04-30 13:16 24.87533 114.64451 30209 ft 485 kts 197°
2026-04-30 13:16 24.80900 114.62831 30211 ft 486 kts 197°
2026-04-30 13:17 24.71153 114.59957 30208 ft 480 kts 204°
2026-04-30 13:18 24.62205 114.55257 30210 ft 475 kts 213°
2026-04-30 13:18 24.53647 114.49834 30188 ft 457 kts 214°
2026-04-30 13:19 24.50925 114.48113 29923 ft 451 kts 214°
2026-04-30 13:19 24.48220 114.46402 29665 ft 444 kts 214°
2026-04-30 13:19 24.45558 114.44721 29410 ft 440 kts 214°
2026-04-30 13:19 24.42931 114.43064 29155 ft 437 kts 214°
2026-04-30 13:20 24.40280 114.41393 28781 ft 437 kts 213°
2026-04-30 13:20 24.37637 114.39734 28202 ft 439 kts 213°
2026-04-30 13:20 24.34982 114.38068 27485 ft 439 kts 213°
2026-04-30 13:20 24.32351 114.36420 26710 ft 440 kts 213°
2026-04-30 13:21 24.29677 114.34744 25862 ft 442 kts 212°
2026-04-30 13:21 24.27035 114.33079 25056 ft 443 kts 212°
2026-04-30 13:21 24.24370 114.31397 24497 ft 438 kts 212°
2026-04-30 13:22 24.19132 114.28113 23350 ft 429 kts 212°
2026-04-30 13:22 24.16577 114.26515 22787 ft 426 kts 212°
2026-04-30 13:22 24.11459 114.23313 21626 ft 421 kts 213°
2026-04-30 13:23 24.09041 114.21502 21041 ft 417 kts 220°
2026-04-30 13:23 24.04955 114.17125 19889 ft 411 kts 230°
2026-04-30 13:24 24.01242 114.12386 18747 ft 406 kts 231°
2026-04-30 13:24 23.97577 114.07713 17597 ft 402 kts 231°
2026-04-30 13:25 23.93946 114.03065 16460 ft 398 kts 231°
2026-04-30 13:25 23.90384 113.98472 15311 ft 393 kts 231°
2026-04-30 13:26 23.85084 113.91689 13575 ft 385 kts 232°
2026-04-30 13:26 23.82457 113.86700 12682 ft 368 kts 252°
2026-04-30 13:27 23.81071 113.81357 12728 ft 365 kts 256°
2026-04-30 13:28 23.79096 113.73309 12785 ft 365 kts 256°
2026-04-30 13:28 23.77770 113.67952 12837 ft 366 kts 256°
2026-04-30 13:28 23.77104 113.65269 12855 ft 366 kts 256°
2026-04-30 13:29 23.75762 113.59869 12862 ft 366 kts 256°
2026-04-30 13:29 23.74423 113.54493 12859 ft 366 kts 256°
2026-04-30 13:30 23.72421 113.46471 12856 ft 366 kts 256°
2026-04-30 13:31 23.71077 113.41107 12845 ft 365 kts 256°
2026-04-30 13:31 23.69064 113.33070 12844 ft 366 kts 256°
2026-04-30 13:32 23.67662 113.27689 12511 ft 368 kts 249°
2026-04-30 13:32 23.64170 113.23724 11289 ft 377 kts 206°
2026-04-30 13:33 23.59116 113.22366 10593 ft 362 kts 193°
2026-04-30 13:33 23.54310 113.21325 10269 ft 336 kts 193°
2026-04-30 13:34 23.52060 113.20830 10148 ft 324 kts 194°
2026-04-30 13:34 23.45647 113.19395 9459 ft 303 kts 194°
2026-04-30 13:35 23.43580 113.18930 9188 ft 299 kts 193°
2026-04-30 13:35 23.39555 113.18031 8669 ft 291 kts 193°
2026-04-30 13:36 23.35630 113.17168 8105 ft 285 kts 193°
2026-04-30 13:36 23.33656 113.16737 7776 ft 284 kts 193°
2026-04-30 13:36 23.29808 113.15895 7148 ft 281 kts 192°
2026-04-30 13:37 23.27875 113.15473 6833 ft 280 kts 192°
2026-04-30 13:37 23.24065 113.14640 6204 ft 277 kts 192°
2026-04-30 13:38 23.20252 113.13808 5554 ft 276 kts 191°
2026-04-30 13:38 23.18366 113.13396 5314 ft 272 kts 191°
2026-04-30 13:38 23.14703 113.13458 4677 ft 268 kts 148°
2026-04-30 13:39 23.13260 113.16822 4186 ft 252 kts 77°
2026-04-30 13:39 23.15369 113.19536 3778 ft 240 kts 19°
2026-04-30 13:40 23.17012 113.19823 3583 ft 236 kts
2026-04-30 13:40 23.18601 113.20186 3357 ft 231 kts 26°
2026-04-30 13:40 23.19837 113.21250 3153 ft 227 kts 50°
2026-04-30 13:40 23.20810 113.22604 2940 ft 224 kts 52°
2026-04-30 13:41 23.21730 113.23946 2735 ft 221 kts 53°
2026-04-30 13:41 23.22637 113.25298 2522 ft 219 kts 53°
2026-04-30 13:41 23.23540 113.26658 2155 ft 224 kts 53°
2026-04-30 13:41 23.24598 113.27781 2185 ft 206 kts 31°
2026-04-30 13:42 23.25978 113.28175 2046 ft 196 kts
2026-04-30 13:42 23.27302 113.28333 1939 ft 184 kts
2026-04-30 13:42 23.29598 113.28780 1511 ft 152 kts 14°
2026-04-30 13:43 23.30591 113.29040 1295 ft 139 kts 15°
2026-04-30 13:43 23.31492 113.29287 1103 ft 128 kts 15°
2026-04-30 13:43 23.32361 113.29526 945 ft 126 kts 14°
2026-04-30 13:43 23.33221 113.29760 788 ft 126 kts 14°
2026-04-30 13:44 23.34075 113.29991 629 ft 126 kts 14°
2026-04-30 13:44 23.34933 113.30225 470 ft 125 kts 13°
2026-04-30 13:44 23.35782 113.30454 303 ft 124 kts 13°
2026-04-30 13:44 23.36606 113.30677 143 ft 122 kts 13°
2026-04-30 13:45 23.38016 113.31056 54 ft 71 kts 14°
2026-04-30 13:45 23.38396 113.31164 54 ft 42 kts 11°
2026-04-30 13:45 23.38652 113.31199 54 ft 31 kts 355°
2026-04-30 13:46 23.38825 113.31160 54 ft 23 kts 346°
2026-04-30 13:46 23.38983 113.31130 54 ft 22 kts 358°
2026-04-30 13:46 23.39132 113.31158 54 ft 21 kts 14°
2026-04-30 13:46 23.39278 113.31198 54 ft 21 kts 11°
2026-04-30 13:47 23.39424 113.31229 54 ft 21 kts 13°
2026-04-30 13:47 23.39565 113.31269 54 ft 21 kts 16°
2026-04-30 13:47 23.39707 113.31311 54 ft 20 kts 15°
2026-04-30 13:47 23.39848 113.31351 54 ft 20 kts 17°
2026-04-30 13:48 23.39990 113.31390 54 ft 20 kts 11°
2026-04-30 13:48 23.40132 113.31427 54 ft 20 kts 14°
2026-04-30 13:48 23.40273 113.31460 54 ft 20 kts 355°
2026-04-30 13:48 23.40345 113.31341 54 ft 20 kts 283°
2026-04-30 13:49 23.40380 113.31189 54 ft 20 kts 283°
2026-04-30 13:49 23.40412 113.31035 54 ft 21 kts 283°
2026-04-30 13:49 23.40451 113.30882 54 ft 21 kts 287°
2026-04-30 13:49 23.40487 113.30726 54 ft 21 kts 284°
2026-04-30 13:50 23.40525 113.30567 54 ft 21 kts 283°
2026-04-30 13:50 23.40595 113.30247 54 ft 21 kts 285°
2026-04-30 13:50 23.40634 113.30087 54 ft 21 kts 283°
2026-04-30 13:51 23.40649 113.29929 54 ft 21 kts 230°
2026-04-30 13:51 23.40537 113.29823 54 ft 20 kts 228°
2026-04-30 13:51 23.40543 113.29710 53 ft 16 kts 294°
2026-04-30 13:51 23.40572 113.29588 53 ft 17 kts 284°
2026-04-30 13:52 23.40534 113.29497 53 ft 15 kts 200°
2026-04-30 13:52 23.40425 113.29458 53 ft 17 kts 194°
2026-04-30 13:52 23.40308 113.29447 53 ft 17 kts 152°
2026-04-30 13:52 23.40261 113.29565 53 ft 15 kts 103°
2026-04-30 13:53 23.40272 113.29623 53 ft 4 kts 20°
2026-04-30 13:53 23.40282 113.29627 53 ft 1 kts 15°
2026-04-30 13:53 23.40300 113.29632 53 ft 3 kts 13°
2026-04-30 13:53 23.40305 113.29633 53 ft 0 kts 13°